Overview Statistics Trail Chart Weather Telemetry Raw packets
 

This is the latest recevied weather packets stored in our database for station/object AI5BL. If no packets are shown the sender has not sent any weather packets the latest 10 day(s).

<< 63 64 65 66 67 68 69 >>
Time Temp. Humidity Pressure Rain* Wind** Luminosity Snow
1788217523 30.56° C 68% 1018.2 hPa 0 mm - 35 W/m² -
1788217223 30.56° C 66% 1018.1 hPa 0 mm - 24 W/m² -
1788216918 31.11° C 67% 1018.2 hPa 0 mm - 23 W/m² -
1788216618 31.11° C 67% 1018.1 hPa 0 mm - 22 W/m² -
1788216313 31.11° C 65% 1018.1 hPa 0 mm - 35 W/m² -
1788216022 31.67° C 65% 1018.1 hPa 0 mm - 66 W/m² -
1788215703 33.33° C 63% 1018 hPa 0 mm - 65 W/m² -
1788215400 33.33° C 54% 1018.2 hPa 0 mm - 54 W/m² -
1788215096 33.33° C 52% 1017.9 hPa 0 mm - 47 W/m² -
1788214795 33.33° C 54% 1018.1 hPa 0 mm - 56 W/m² -
1788214491 33.33° C 53% 1018.1 hPa 0 mm - 68 W/m² -
1788214186 33.33° C 53% 1018.1 hPa 0 mm - 81 W/m² -
1788213881 32.78° C 54% 1018.2 hPa 0 mm - 55 W/m² -
1788213576 32.78° C 56% 1018.1 hPa 0 mm - 59 W/m² -
1788213272 33.33° C 61% 1018.4 hPa 0 mm - 70 W/m² -
1788212968 33.33° C 55% 1018.2 hPa 0 mm - 53 W/m² -
1788212665 33.89° C 51% 1018.1 hPa 0 mm - 44 W/m² -
1788212361 34.44° C 49% 1018.2 hPa 0 mm - 58 W/m² -
1788212058 34.44° C 54% 1018.2 hPa 0 mm - 103 W/m² -
1788211757 34.44° C 51% 1018.4 hPa 0 mm - 106 W/m² -
1788211454 34.44° C 50% 1018.3 hPa 0 mm - 93 W/m² -
1788211153 34.44° C 50% 1018.4 hPa 0 mm - 85 W/m² -
1788210849 33.89° C 52% 1018.4 hPa 0 mm - 83 W/m² -
1788210548 33.89° C 52% 1018.4 hPa 0 mm - 92 W/m² -
1788210243 33.89° C 53% 1018.4 hPa 0 mm - 216 W/m² -

* Rain latest hour (hover to see other rain measurements)
** Current wind speed in m/s (hover to see current wind gust speed)